Retour au catalogue

PALAPA C2

ActifCommunicationsGEO
NORAD 23864·PAYLOAD·🇮🇩 Indonesia

Lancé May 16, 1996 depuis Guiana Space Centre

Loading…

TLE

FraisSource: Space-Track

Époque: Sep 14, 2026, 13:26 UTC

1 23864U 96030A   26257.56031106  .00000040  00000-0  00000-0 0  9999
2 23864  11.8304  37.7955 0008427 134.7008 248.8396  0.99001396110607

Suivez PALAPA C2 en temps réel avec AllMySat

Download on the App Store